Tracking 19212 objects as of 17-Jul-2018
HD Live streaming from Space Station
objects crossing your sky now

FENGYUN 1C DEB

Track FENGYUN 1C DEB now!
10-day predictions


NORAD ID: 36734
Int'l Code: 1999-025EBG
Perigee: 832.4 km
Apogee: 895.8 km
Inclination: 99.0 °
Period: 102.1 minutes
Semi major axis: 7235 km
RCS: 0.0055 m2 (small)
Launch date: May 10, 1999
Source: People's Republic of China (PRC)
Launch site: Taiyaun Space Center, China (TSC)

Note: This is SATELLITE DEBRIS
aabbcc
Your satellite tracking list
Your tracking list is empty




NASA's NSSDC Master Catalog

Two Line Element Set (TLE):
1 36734U 99025EBG 18196.10977129  .00000635  00000-0  37738-3 0  9994
2 36734  99.0162 159.3236 0043834 314.1553  45.6017 14.10711069444336
Source of the keplerian elements: AFSPC